Tracking 21676 objects as of 29-Oct-2020
HD Live streaming from Space Station
objects crossing your sky now

QUETZAL-1

Track QUETZAL-1 now!
10-day predictions
QUETZAL-1 is classified as:


NORAD ID: 45598
Int'l Code: 1998-067RL
Perigee: 415.8 km
Apogee: 419.1 km
Inclination: 51.6 °
Period: 92.8 minutes
Semi major axis: 6788 km
RCS: Unknown
Launch date: November 20, 1998
Source: (TBD)
Launch site: TYURATAM MISSILE AND SPACE COMPLEX (TTMTR)

Uplink (MHz):
Downlink (MHz): 437.200
Beacon (MHz):
Mode: 4800bps GMSK
Call sign:
Status: Active

aabbcc
Your satellite tracking list
Your tracking list is empty




NASA's NSSDC Master Catalog

Two Line Element Set (TLE):
1 45598U 98067RL  20303.01016871  .00013186  00000-0  22088-3 0  9995
2 45598  51.6428  44.1920 0002444 222.5779 137.5022 15.52190891 28525
Source of the keplerian elements: AFSPC